Avoca, PA

11:24 PM EDT on September 18, 2019 (GMT -0400)
Wilkes-Barre-Scranton International

Weather History for KAVP - July, 2019

Change the Weather History Date:

Saturday, July 27, 2019

  Actual Average Record
Temperature  
Mean Temperature 75 °F 72 °F  
Max Temperature 88 °F 82 °F 94 °F (1964)
Min Temperature 62 °F 61 °F 47 °F (1977)
Degree Days  
Heating Degree Days 0 0  
Month to date heating degree days 0 0  
Since 1 June heating degree days 32 54  
Since 1 July heating degree days 0 0  
Cooling Degree Days 10 7  
Month to date cooling degree days 299 184  
Year to date cooling degree days 464 338  
Since 1 June cooling degree days 414 301  
Growing Degree Days 25 (Base 50)    
Moisture  
Dew Point 60 °F    
Average Humidity 65    
Maximum Humidity 90    
Minimum Humidity 40    
Precipitation  
Precipitation 0.00 in 0.12 in 2.34 in (1934)
Month to date precipitation 6.92 3.26  
Year to date precipitation 31.62 21.09  
Sea Level Pressure  
Sea Level Pressure 30.23 in    
Wind  
Wind Speed 5 mph (South)    
Max Wind Speed 14 mph    
Max Gust Speed 20 mph    
Visibility 10 miles    
Events      
T = Trace of Precipitation, MM = Missing Value Source: NWS Daily Summary

Daily Weather History Graph

Daily Weather History Graph

Search for Another Location

Airport or City:

Astronomy

Jul. 27, 2019 Rise Set
Actual Time 5:52 AM EDT 8:25 PM EDT
Civil Twilight 5:21 AM EDT 8:56 PM EDT
Nautical Twilight 4:41 AM EDT 9:36 PM EDT
Astronomical Twilight 3:57 AM EDT 10:20 PM EDT
Moon 1:38 AM EDT (7/27) 4:13 PM EDT (7/27)
Length of Visible Light 15h 35m
Length of Day
14h 32m
Waning Crescent, 24% of the Moon is Illuminated
Jul 27
Waning Crescent
Jul 31
New
Aug 7
First Quarter
Aug 15
Full
Aug 23
Last Quarter

Hourly Weather History & Observations

Time (EDT) Temp. Heat Index Dew Point Humidity Pressure Visibility Wind Dir Wind Speed Gust Speed Precip Events Conditions
12:54 AM 66.0 °F - 60.1 °F 81% 30.27 in 10.0 mi ESE 6.9 mph - N/A   Clear
1:54 AM 64.9 °F - 60.1 °F 84% 30.26 in 10.0 mi ESE 5.8 mph - N/A   Clear
2:54 AM 64.0 °F - 59.0 °F 84% 30.25 in 10.0 mi ESE 5.8 mph - N/A   Clear
4:54 AM 63.0 °F - 59.0 °F 87% 30.27 in 10.0 mi East 4.6 mph - N/A   Clear
5:54 AM 62.1 °F - 59.0 °F 90% 30.28 in 10.0 mi East 5.8 mph - N/A   Clear
6:54 AM 64.0 °F - 59.0 °F 84% 30.30 in 9.0 mi Calm Calm - N/A   Clear
7:54 AM 68.0 °F - 60.1 °F 76% 30.30 in 10.0 mi ENE 3.5 mph - N/A   Clear
8:19 AM 69.1 °F - 61.0 °F 75% 30.32 in 10.0 mi East 3.5 mph - N/A   Clear
8:54 AM 73.0 °F - 63.0 °F 71% 30.30 in 10.0 mi Calm Calm - N/A   Clear
9:54 AM 77.0 °F - 63.0 °F 62% 30.28 in 10.0 mi SSW 3.5 mph - N/A   Clear
10:54 AM 81.0 °F 81.9 °F 62.1 °F 52% 30.27 in 10.0 mi Variable 4.6 mph - N/A   Clear
11:54 AM 82.9 °F 83.2 °F 60.1 °F 46% 30.26 in 10.0 mi WSW 5.8 mph - N/A   Clear
12:30 PM 84.0 °F 84.0 °F 60.1 °F 44% 30.27 in 10.0 mi SSW 6.9 mph - N/A   Clear
12:54 PM 84.9 °F 85.0 °F 61.0 °F 44% 30.24 in 10.0 mi West 8.1 mph - N/A   Clear
1:54 PM 86.0 °F 85.4 °F 59.0 °F 40% 30.21 in 10.0 mi West 11.5 mph - N/A   Clear
2:54 PM 86.0 °F 85.7 °F 60.1 °F 41% 30.19 in 10.0 mi SW 4.6 mph - N/A   Partly Cloudy
3:54 PM 84.9 °F 84.4 °F 59.0 °F 41% 30.17 in 10.0 mi South 6.9 mph - N/A   Partly Cloudy
4:54 PM 86.0 °F 85.4 °F 59.0 °F 40% 30.16 in 10.0 mi SW 8.1 mph - N/A   Partly Cloudy
5:54 PM 84.9 °F 84.8 °F 60.1 °F 43% 30.15 in 10.0 mi SW 10.4 mph - N/A   Clear
6:54 PM 84.0 °F 84.0 °F 60.1 °F 44% 30.14 in 10.0 mi SW 8.1 mph - N/A   Clear
7:54 PM 81.0 °F 81.9 °F 62.1 °F 52% 30.15 in 10.0 mi South 4.6 mph - N/A   Clear
8:54 PM 79.0 °F - 61.0 °F 54% 30.15 in 10.0 mi South 3.5 mph - N/A   Scattered Clouds
9:54 PM 78.1 °F - 63.0 °F 60% 30.17 in 10.0 mi SW 5.8 mph - N/A   Overcast
10:54 PM 75.0 °F - 64.0 °F 69% 30.16 in 10.0 mi Calm Calm - N/A   Overcast